User: anonymous   Login
Location: *
(51.5000°N, 0.1100°W)
Time: 06:06:09
(UTC+00:00)
Language:

Cosmos 1455 - Orbit

View from above orbital plane
View from above orbital plane
View from above satellite
View from above satellite

Ground track
Ground track

The orbit data is extracted from the following two-line orbital elements,

1 14032U 83037A   24204.96647940  .00026886  00000-0  69170-3 0  9994
2 14032  82.5052  30.8061 0010220 216.1190 143.9366 15.39058342255258
Epoch (UTC): 22 July 2024 23:11:43
Eccentricity: 0.0010220
inclination: 82.5052°
perigee height: 442 km
apogee height: 456 km
right ascension of ascending node: 30.8061°
argument of perigee: 216.1190°
revolutions per day: 15.39058342
mean anomaly at epoch: 143.9366°
orbit number at epoch: 25525

The dashed part of the orbit path shows where the satellite is in the earth's shadow,  

DLR